[[{"header":{"parameterUnit":"m.s-1","parameterCategory":1,"la1":30.2991,"la2":30.254,"lo1":-89.0895,"lo2":-89.0444,"dy":0.0017,"dx":0.0017,"nx":28,"ny":28,"refTime":"2023-09-17T21:00:00:Z","depth":0,"parameterNumber":2,"parameterNumberName":"U-component_of_WINDS"},"data":[0,0,0,0,0,0,0,0,0,0,0,0,0,0,0,0,0,0,0,0,0,0,0,0,0,0,0,0,0,0,0,0,0,0,0,0,0,0,0,0,0,0,0,0,0,0,0,0,0,0,0,0,0,0,0,0,0,0,-4.5223,-4.5223,0,-4.524,-4.524,-4.524,-4.5176,-4.5174,-4.5172,-4.517,-4.5184,-4.5186,-4.5188,0,0,0,0,0,0,0,0,0,0,0,0,0,-4.5134,-4.5136,-4.5223,-4.5223,-4.5224,-4.5239,-4.524,-4.524,-4.5176,-4.5174,-4.5171,-4.5169,-4.5183,-4.5186,-4.5188,0,0,0,0,0,0,0,0,0,0,0,0,0,-4.5164,-4.5137,-4.5223,-4.5194,-4.5191,-4.5239,-4.524,-4.524,-4.5177,-4.5174,-4.5171,-4.5168,-4.5182,-4.5185,-4.5189,-4.5265,0,0,-4.5198,-4.52,0,0,0,0,0,0,0,0,-4.5162,-4.5167,-4.5198,-4.5196,-4.5193,-4.5203,-4.5213,-4.5248,-4.5177,-4.5182,-4.517,-4.5167,-4.5192,-4.5194,-4.5204,-4.5266,-4.5266,-4.5199,-4.5201,-4.5202,-4.5203,0,0,0,0,0,0,0,-4.516,-4.5166,-4.5229,-4.5198,-4.5196,-4.5179,-4.518,-4.522,-4.5203,-4.5181,-4.5177,-4.518,-4.519,-4.5201,-4.5203,-4.5266,-4.5199,-4.5201,-4.5203,-4.5205,-4.5392,-4.5394,0,0,0,0,0,0,-4.5163,-4.5165,-4.5229,-4.523,-4.5171,-4.5183,-4.5184,-4.5202,-4.5202,-4.5199,-4.5182,-4.5177,-4.5197,-4.52,-4.5204,-4.5292,-4.5202,-4.5205,-4.5207,-4.5389,-4.5392,-4.5395,0,0,0,0,0,0,-4.5161,-4.5169,-4.5228,-4.5196,-4.5203,-4.5187,-4.5209,-4.5204,-4.5214,-4.5203,-4.5199,-4.5196,-4.5195,-4.5199,-4.525,-4.5292,-4.5206,-4.5209,-4.5385,-4.539,-4.5394,-4.5471,0,0,0,0,0,0,-4.5159,-4.5169,-4.5198,-4.5197,-4.5205,-4.5276,-4.5211,-4.5207,-4.5221,-4.5214,-4.5215,-4.5212,-4.5193,-4.5246,-4.5254,-4.5295,-4.5212,-4.5381,-4.5387,-4.5392,-4.5465,-4.5478,-4.5489,0,0,0,0,0,-4.5156,-4.5218,-4.52,-4.5208,-4.5241,-4.5278,-4.5282,-4.5259,-4.5224,-4.5253,-4.5246,-4.5212,-4.5287,-4.5252,-4.526,-4.5303,-4.5378,-4.5385,-4.5392,-4.5459,-4.5475,-4.5488,0,0,0,0,0,0,-4.5223,-4.5218,-4.5197,-4.5262,-4.5271,-4.5267,-4.5303,-4.5277,-4.5295,-4.5288,-4.5258,-4.5259,-4.5315,-4.5314,-4.5275,-4.5376,-4.5326,-4.5335,-4.5375,-4.539,-4.5402,-4.54,-4.5214,0,0,0,0,0,-4.5245,-4.5277,-4.527,-4.5328,-4.5334,-4.5318,-4.5333,-4.5315,-4.5323,-4.5326,-4.5322,-4.5331,-4.5356,-4.5373,-4.5396,-4.5465,-4.5464,-4.5498,-4.5511,-4.5521,-4.5528,-4.5564,-4.5579,-4.5418,-4.5418,-4.5418,0,0,-4.5291,-4.5293,-4.5314,-4.5341,-4.5346,-4.5379,-4.5321,-4.5358,-4.5381,-4.5331,-4.5379,-4.5377,-4.5385,-4.5445,-4.5471,-4.5446,-4.5572,-4.5529,-4.5537,-4.5539,-4.5572,-4.5588,-4.5601,-4.5423,-4.5422,-4.5421,0,0,-4.5392,-4.5397,-4.5445,-4.5452,-4.5461,-4.545,-4.5462,-4.5463,-4.546,-4.5508,-4.5471,-4.5498,-4.5543,-4.5549,-4.5558,-4.5664,-4.5633,-4.5672,-4.5734,-4.577,-4.5782,-4.5793,-4.583,-4.5843,-4.568,-4.568,-4.568,0,-4.5448,-4.5496,-4.5473,-4.5512,-4.5525,-4.5483,-4.5531,-4.5539,-4.5554,-4.5564,-4.5536,-4.5591,-4.5593,-4.5654,-4.568,-4.5689,-4.5701,-4.567,-4.5783,-4.5793,-4.5803,-4.5838,-4.5852,-4.5684,-4.5684,-4.5683,-4.5683,0,-4.5564,-4.5598,-4.5636,-4.5653,-4.567,-4.5714,-4.5697,-4.5717,-4.5698,-4.569,-4.574,-4.5741,-4.5763,-4.5777,-4.5758,-4.5836,-4.582,-4.5788,-4.5736,-4.5824,-4.5855,-4.5868,-4.5691,-4.5689,-4.5688,-4.5687,0,0,-4.5704,-4.571,-4.5724,-4.5732,-4.5739,-4.5765,-4.5807,-4.583,-4.5847,-4.586,-4.5893,-4.5933,-4.5904,-4.5914,-4.5896,-4.5928,-4.601,-4.5892,-4.5891,-4.5912,-4.6094,-4.6117,-4.6133,-4.5991,-4.5993,-4.5995,-4.6093,0,-4.5802,-4.5874,-4.5855,-4.5927,-4.5958,-4.592,-4.5956,-4.5964,-4.5959,-4.5983,-4.5977,-4.6005,-4.5965,-4.5971,-4.6,-4.5994,-4.6046,-4.5987,-4.602,-4.6022,-4.6018,-4.6149,-4.6173,-4.6266,-4.6106,-4.6108,-4.6109,0,-4.5924,-4.5943,-4.6019,-4.6022,-4.6034,-4.6067,-4.6087,-4.6112,-4.6121,-4.6114,-4.6127,-4.6103,-4.6144,-4.6094,-4.6149,-4.6109,-4.6122,-4.6121,-4.6124,-4.6125,-4.6069,-4.6152,-4.6295,-4.6308,-4.6129,-4.6127,-4.6126,0,-4.6018,-4.6062,-4.6113,-4.6121,-4.6126,-4.615,-4.6154,-4.616,-4.6175,-4.6192,-4.6202,-4.6224,-4.6235,-4.6252,-4.6234,-4.62,-4.6291,-4.624,-4.6286,-4.6287,-4.6305,-4.6304,-4.645,-4.6317,-4.6317,-4.6316,-4.6316,0,-4.6127,-4.6174,-4.6155,-4.6186,-4.6237,-4.6216,-4.6267,-4.6266,-4.6272,-4.6302,-4.627,-4.6298,-4.6274,-4.63,-4.6287,-4.6334,-4.6339,-4.6335,-4.633,-4.6336,-4.6337,-4.6343,-4.6335,-4.632,-4.6319,-4.6319,-4.6318,0,-4.6239,-4.6228,-4.628,-4.6282,-4.6284,-4.6322,-4.6323,-4.6351,-4.6344,-4.6382,-4.639,-4.6378,-4.6407,-4.6392,-4.6422,-4.6413,-4.6473,-4.6461,-4.647,-4.6466,-4.6512,-4.6508,-4.6666,-4.6685,-4.6542,-4.6543,-4.6544,0,-4.6308,-4.6344,-4.635,-4.6369,-4.6374,-4.6404,-4.642,-4.6401,-4.6418,-4.6432,-4.6458,-4.6485,-4.6505,-4.6553,-4.6547,-4.6569,-4.6556,-4.661,-4.6559,-4.6564,-4.6555,-4.6552,-4.6555,-4.662,-4.6621,-4.6623,-4.6624,0,-4.6432,-4.6426,-4.645,-4.6474,-4.6494,-4.6511,-4.6525,-4.6542,-4.6523,-4.6544,-4.6574,-4.659,-4.6621,-4.6648,-4.6668,-4.667,-4.6643,-4.6641,-4.6652,-4.6657,-4.6661,-4.6658,-4.6496,-4.6636,-4.6635,-4.6634,-4.6633,-4.6633,-4.6523,-4.6553,-4.6563,-4.6592,-4.6601,-4.6616,-4.6642,-4.664,-4.6665,-4.6689,-4.6677,-4.6712,-4.672,-4.6744,-4.675,-4.6777,-4.6755,-4.6772,-4.6775,-4.6779,-4.6785,-4.6659,-4.678,-4.678,-4.678,-4.6779,-4.6779,0,-4.6644,-4.6649,-4.6676,-4.6698,-4.6721,-4.6697,-4.6712,-4.6732,-4.6763,-4.6774,-4.6795,-4.683,-4.6856,-4.6853,-4.6876,-4.6898,-4.6887,-4.6905,-4.6902,-4.6902,-4.6804,-4.6791,-4.6914,-4.6914,-4.6914,-4.6914,-4.6914,-4.6913,-4.671,-4.6759,-4.6754,-4.6808,-4.6812,-4.6847,-4.6857,-4.687,-4.6879,-4.6919,-4.6941,-4.694,-4.6945,-4.6969,-4.6992,-4.699,-4.6999,-4.7022,-4.7015,-4.6923,-4.6909,-4.6897,-4.6884,-4.7024,-4.7025,-4.7111,-4.7112,-4.7113]},{"header":{"parameterUnit":"m.s-1","parameterCategory":1,"la1":30.2991,"la2":30.254,"lo1":-89.0895,"lo2":-89.0444,"dy":0.0017,"dx":0.0017,"nx":28,"ny":28,"refTime":"2023-09-17T21:00:00:Z","depth":0,"parameterNumber":3,"parameterNumberName":"V-component_of_WINDS"},"data":[0,0,0,0,0,0,0,0,0,0,0,0,0,0,0,0,0,0,0,0,0,0,0,0,0,0,0,0,0,0,0,0,0,0,0,0,0,0,0,0,0,0,0,0,0,0,0,0,0,0,0,0,0,0,0,0,0,0,-0.7883,-0.7885,0,-0.8041,-0.8043,-0.8045,-0.8107,-0.8107,-0.8106,-0.8106,-0.8268,-0.8272,-0.8277,0,0,0,0,0,0,0,0,0,0,0,0,0,-0.7635,-0.7639,-0.7883,-0.7885,-0.7887,-0.8041,-0.8043,-0.8045,-0.8107,-0.8107,-0.8106,-0.8106,-0.8266,-0.8271,-0.8277,0,0,0,0,0,0,0,0,0,0,0,0,0,-0.7762,-0.764,-0.7883,-0.7937,-0.7943,-0.8041,-0.8043,-0.8046,-0.8107,-0.8107,-0.8106,-0.8106,-0.8264,-0.8271,-0.8278,-0.8333,0,0,-0.8299,-0.8302,0,0,0,0,0,0,0,0,-0.7755,-0.7772,-0.7927,-0.7933,-0.794,-0.8054,-0.8015,-0.8142,-0.8108,-0.8045,-0.8106,-0.8105,-0.8197,-0.8209,-0.824,-0.8341,-0.8348,-0.83,-0.8304,-0.8307,-0.8309,0,0,0,0,0,0,0,-0.7746,-0.7765,-0.7946,-0.7929,-0.7937,-0.7953,-0.797,-0.8039,-0.8122,-0.805,-0.8055,-0.8073,-0.8201,-0.8233,-0.8245,-0.835,-0.83,-0.8306,-0.831,-0.8313,-0.8505,-0.8505,0,0,0,0,0,0,-0.7728,-0.7757,-0.7941,-0.795,-0.7844,-0.7958,-0.7977,-0.8018,-0.8122,-0.8137,-0.8073,-0.8075,-0.8222,-0.8236,-0.8251,-0.8323,-0.8307,-0.8314,-0.8318,-0.8504,-0.8505,-0.8506,0,0,0,0,0,0,-0.7723,-0.7744,-0.7934,-0.7855,-0.7881,-0.7963,-0.8008,-0.8022,-0.8055,-0.8139,-0.8154,-0.8092,-0.8222,-0.8241,-0.8312,-0.8329,-0.8317,-0.8323,-0.8503,-0.8504,-0.8505,-0.8467,0,0,0,0,0,0,-0.7715,-0.7742,-0.7764,-0.7855,-0.7885,-0.7994,-0.8009,-0.8025,-0.8067,-0.8071,-0.8161,-0.8175,-0.8223,-0.8302,-0.8319,-0.8339,-0.8329,-0.8502,-0.8503,-0.8505,-0.8467,-0.8467,-0.8467,0,0,0,0,0,-0.7706,-0.7747,-0.7765,-0.7787,-0.7914,-0.7994,-0.8011,-0.8066,-0.8068,-0.8091,-0.8145,-0.8172,-0.8324,-0.8308,-0.8329,-0.8351,-0.8501,-0.8503,-0.8505,-0.8467,-0.8467,-0.8467,0,0,0,0,0,0,-0.7655,-0.776,-0.7781,-0.7852,-0.7914,-0.8005,-0.8035,-0.8063,-0.8126,-0.8127,-0.8192,-0.8212,-0.8278,-0.8322,-0.8302,-0.841,-0.8415,-0.8421,-0.8379,-0.8379,-0.8379,-0.8367,-0.8335,0,0,0,0,0,-0.7652,-0.7709,-0.7797,-0.7851,-0.7881,-0.7953,-0.799,-0.8026,-0.8093,-0.8119,-0.8179,-0.8243,-0.8305,-0.8345,-0.8406,-0.8474,-0.8494,-0.8499,-0.8498,-0.8498,-0.8502,-0.8541,-0.8544,-0.8512,-0.8512,-0.8512,0,0,-0.7647,-0.7711,-0.7743,-0.7843,-0.7895,-0.7952,-0.7974,-0.8034,-0.8077,-0.8129,-0.82,-0.8246,-0.8321,-0.8391,-0.8424,-0.8429,-0.8515,-0.85,-0.8499,-0.8504,-0.8543,-0.8546,-0.8549,-0.8514,-0.8513,-0.8513,0,0,-0.7666,-0.772,-0.7771,-0.7823,-0.7902,-0.7949,-0.7961,-0.8048,-0.808,-0.8153,-0.8193,-0.8245,-0.8351,-0.8403,-0.8443,-0.8481,-0.8508,-0.8499,-0.8498,-0.8535,-0.8537,-0.854,-0.8554,-0.8558,-0.8504,-0.8503,-0.8503,0,-0.7649,-0.7737,-0.7794,-0.7852,-0.7894,-0.7943,-0.7996,-0.8043,-0.8138,-0.8166,-0.817,-0.8304,-0.8358,-0.844,-0.845,-0.848,-0.8496,-0.849,-0.8532,-0.8536,-0.8539,-0.8553,-0.8558,-0.8502,-0.8502,-0.8502,-0.8502,0,-0.7712,-0.7772,-0.7804,-0.7895,-0.7941,-0.7996,-0.8061,-0.8101,-0.8133,-0.818,-0.8253,-0.8319,-0.8396,-0.8418,-0.845,-0.8505,-0.8505,-0.852,-0.8526,-0.8539,-0.8553,-0.8559,-0.85,-0.85,-0.8501,-0.8501,0,0,-0.7704,-0.7825,-0.7836,-0.7877,-0.7968,-0.8015,-0.8072,-0.8147,-0.818,-0.8243,-0.8292,-0.838,-0.8394,-0.844,-0.8478,-0.8511,-0.8537,-0.8522,-0.8524,-0.8522,-0.8601,-0.859,-0.8595,-0.8555,-0.8556,-0.8557,-0.8595,0,-0.7735,-0.7839,-0.7892,-0.7973,-0.8029,-0.8076,-0.8126,-0.8186,-0.8231,-0.8285,-0.8335,-0.8397,-0.841,-0.8438,-0.8472,-0.8526,-0.8554,-0.8524,-0.8602,-0.8604,-0.8581,-0.8603,-0.8591,-0.8624,-0.8601,-0.8602,-0.8603,0,-0.7786,-0.7849,-0.7935,-0.8019,-0.8045,-0.8088,-0.8161,-0.8212,-0.8281,-0.8312,-0.8362,-0.84,-0.8461,-0.8462,-0.8547,-0.8526,-0.8561,-0.8592,-0.8595,-0.8604,-0.8604,-0.8613,-0.8635,-0.864,-0.8612,-0.8611,-0.8611,0,-0.7771,-0.7878,-0.7943,-0.7977,-0.8077,-0.8106,-0.8149,-0.8218,-0.8259,-0.8322,-0.835,-0.8419,-0.8457,-0.851,-0.8565,-0.8561,-0.8645,-0.8651,-0.8672,-0.8671,-0.8688,-0.8686,-0.8716,-0.871,-0.871,-0.8709,-0.8709,0,-0.7801,-0.7852,-0.7938,-0.7978,-0.8037,-0.8097,-0.8153,-0.82,-0.826,-0.831,-0.8355,-0.8401,-0.8471,-0.8526,-0.8569,-0.8633,-0.865,-0.8676,-0.8687,-0.8673,-0.8669,-0.8697,-0.8696,-0.8711,-0.8711,-0.871,-0.871,0,-0.7794,-0.7854,-0.7929,-0.8017,-0.804,-0.8079,-0.8154,-0.8195,-0.8242,-0.8305,-0.8323,-0.8397,-0.8463,-0.8524,-0.8612,-0.8641,-0.8706,-0.872,-0.8683,-0.8689,-0.8707,-0.8704,-0.8756,-0.8765,-0.8751,-0.8751,-0.8752,0,-0.781,-0.785,-0.7942,-0.7979,-0.8021,-0.8079,-0.8122,-0.8182,-0.8225,-0.8307,-0.8338,-0.8407,-0.8467,-0.8571,-0.8632,-0.87,-0.8716,-0.8729,-0.8727,-0.871,-0.8717,-0.8713,-0.8718,-0.8729,-0.8729,-0.8728,-0.8728,0,-0.783,-0.7858,-0.7917,-0.7987,-0.8037,-0.8095,-0.8154,-0.8181,-0.8253,-0.8298,-0.8367,-0.8413,-0.8503,-0.8572,-0.8646,-0.869,-0.8721,-0.8729,-0.8737,-0.8723,-0.8699,-0.8712,-0.8682,-0.8727,-0.8727,-0.8727,-0.8728,-0.8728,-0.7835,-0.7873,-0.7944,-0.8009,-0.806,-0.8114,-0.8157,-0.8209,-0.8268,-0.8346,-0.8378,-0.8448,-0.8516,-0.862,-0.8663,-0.8719,-0.8725,-0.8737,-0.874,-0.8742,-0.874,-0.869,-0.8732,-0.8732,-0.8733,-0.8733,-0.8733,0,-0.7858,-0.7906,-0.7965,-0.8046,-0.8097,-0.8122,-0.8189,-0.823,-0.8291,-0.8352,-0.8409,-0.8488,-0.8555,-0.8621,-0.8692,-0.8723,-0.8739,-0.874,-0.8738,-0.8748,-0.873,-0.8716,-0.8726,-0.8726,-0.8726,-0.8726,-0.8726,-0.8726,-0.7876,-0.7942,-0.7978,-0.8069,-0.8117,-0.8185,-0.8221,-0.8272,-0.8321,-0.8407,-0.8463,-0.8506,-0.8569,-0.8645,-0.8707,-0.8725,-0.8749,-0.8745,-0.8767,-0.8749,-0.8749,-0.8749,-0.8736,-0.875,-0.875,-0.878,-0.8781,-0.8781]}]]